CZ-2D DEB (43237 NORAD) Tracking and Keplerian Element Data

This shows tracking and keplerian element data for the satellite.

Feedback or suggestion? Click here.




ElementValue
Catalog43237
NameCZ-2D DEB
Epoch Orbit439
Epoch Day105.58415136
Epoch Year2018
RAAN225.5169
Inclination97.2299
Eccentricity0.0015877
Argument of Perigee316.9524
Mean Anonmoly43.0464
Mean Motion15.22830207
Decay Rate2.512E-05
L11 43237U 18025B 18105.58415136 .00002512 00000-0 10994-3 0 9999
L22 43237 97.2299 225.5169 0015877 316.9524 43.0464 15.22830207 4394

Live tracking and technical data element details for CZ-2D DEB (NORAD 43237). CZ-2D DEB can be tracked NOW for your location showing map with azimuth and elevation plus other details from your city location.

Track the satellite on the map from your city or location and see movement details for azimuth, elevation, latitude, longitude, range, height, and movement on the map or in text.







IsCatalogInMostPopularTable: catalog: 43237, numindb: 91
Update: records affected: 1



GetName: 43237 CZ-2D DEB

Hit Count: updated at: Tue, 20 Nov 2018 11:40:19 GMT